Spokane Fairchild, WA

5:25 PM PDT on June 27, 2017 (GMT -0700)
Fairchild Air Force Base

Weather History for KSKA - December, 2012

Change the Weather History Date:

Thursday, December 6, 2012

  Actual Average Record
Temperature  
Mean Temperature 32 °F -  
Max Temperature 34 °F 34 °F 46 °F (2003)
Min Temperature 30 °F 26 °F 5 °F (2005)
Degree Days  
Heating Degree Days 33    
Moisture  
Dew Point 33 °F    
Average Humidity 100    
Maximum Humidity 100    
Minimum Humidity 100    
Precipitation  
Precipitation 0.00 in - - ()
Sea Level Pressure  
Sea Level Pressure 30.00 in    
Wind  
Wind Speed 12 mph (SSW)    
Max Wind Speed 16 mph    
Max Gust Speed 25 mph    
Visibility 10 miles    
Events Rain , Snow    
Averages and records for this station are not official NWS values.
T = Trace of Precipitation, MM = Missing Value Source: NWS Daily Summary

Daily Weather History Graph

Daily Weather History Graph

Search for Another Location

Airport or City:

Trip Planner

Search our weather history database for the weather conditions in past years. The results will help you decide how hot, cold, wet, or windy it might be!

Date:

Astronomy

Dec. 06, 2012 Rise Set
Actual Time 7:24 AM PST 3:59 PM PST
Civil Twilight 6:48 AM PST 4:34 PM PST
Nautical Twilight 6:09 AM PST 5:13 PM PST
Astronomical Twilight 5:32 AM PST 5:51 PM PST
Moon No Moon Rise 11:54 AM PST (12/6)
Length of Visible Light 9h 46m
Length of Day
8h 34m
Waning Gibbous, 48% of the Moon is Illuminated
Dec 6
Waning Gibbous
Dec 13
New
Dec 19
First Quarter
Dec 28
Full
Jan 4
Last Quarter

Hourly Weather History & Observations

Time (PST) Temp. Windchill Dew Point Humidity Pressure Visibility Wind Dir Wind Speed Gust Speed Precip Events Conditions
12:58 AM 32.5 °F 24.2 °F 32.5 °F 100% 30.15 in 10.0 mi South 10.4 mph - N/A   Mostly Cloudy
1:58 AM 32.4 °F 26.0 °F 32.4 °F 100% 30.16 in 10.0 mi South 6.9 mph - N/A   Overcast
2:58 AM 30.7 °F 22.6 °F 30.7 °F 100% 30.16 in 10.0 mi South 9.2 mph - N/A   Mostly Cloudy
3:58 AM 30.7 °F 21.4 °F 30.7 °F 100% 30.14 in 10.0 mi South 11.5 mph - N/A   Overcast
4:05 AM 32.0 °F 24.2 °F 32.0 °F 100% 30.07 in 10.0 mi South 9.2 mph - N/A   Overcast
4:11 AM 32.0 °F 24.8 °F 32.0 °F 100% 30.07 in 10.0 mi South 8.1 mph - N/A   Overcast
4:58 AM 30.4 °F 22.2 °F 30.4 °F 100% 30.14 in 10.0 mi South 9.2 mph - 0.00 in   Scattered Clouds
5:35 AM 32.0 °F 23.0 °F 32.0 °F 100% 30.06 in 10.0 mi SSW 11.5 mph - N/A   Overcast
5:51 AM 32.0 °F 23.0 °F 32.0 °F 100% 30.06 in 10.0 mi South 11.5 mph - N/A   Overcast
5:58 AM 30.6 °F 21.8 °F 30.6 °F 100% 30.13 in 10.0 mi SSW 10.4 mph - 0.00 in   Overcast
6:58 AM 30.7 °F 22.0 °F 30.7 °F 100% 30.12 in 10.0 mi South 10.4 mph - N/A   Overcast
7:58 AM 30.9 °F 21.2 °F 30.9 °F 100% 30.12 in 10.0 mi South 12.7 mph - N/A   Mostly Cloudy
8:58 AM 31.6 °F 23.1 °F 31.6 °F 100% 30.13 in 10.0 mi South 10.4 mph - N/A   Overcast
9:58 AM 32.0 °F 23.6 °F 32.0 °F 100% 30.13 in 10.0 mi South 10.4 mph - N/A   Overcast
10:09 AM 32.0 °F 23.6 °F 32.0 °F 100% 30.05 in 10.0 mi South 10.4 mph - N/A   Overcast
10:58 AM 32.4 °F 22.5 °F 32.4 °F 100% 30.11 in 10.0 mi South 13.8 mph - N/A   Overcast
11:10 AM 32.0 °F 21.6 °F 32.0 °F 100% 30.03 in 10.0 mi SSW 15.0 mph - N/A   Overcast
11:25 AM 32.0 °F 22.1 °F 32.0 °F 100% 30.03 in 6.0 mi SSW 13.8 mph - N/A Rain Light Rain
11:39 AM 32.0 °F 22.1 °F 32.0 °F 100% 30.02 in 8.0 mi South 13.8 mph - N/A Rain Light Rain
11:44 AM 32.0 °F 22.5 °F 32.0 °F 100% 30.02 in 7.0 mi South 12.7 mph - N/A Rain Light Rain
11:49 AM 32.0 °F 23.0 °F 32.0 °F 100% 30.02 in 7.0 mi South 11.5 mph - N/A Rain Light Rain
11:58 AM 32.7 °F 23.9 °F 32.7 °F 100% 30.09 in 10.0 mi SSW 11.5 mph - 0.00 in Rain Light Rain
12:00 PM 32.0 °F 22.5 °F 32.0 °F 100% 30.02 in 10.0 mi SSW 12.7 mph - N/A   Overcast
12:58 PM 34.2 °F 25.2 °F 34.2 °F 100% 30.06 in 10.0 mi South 12.7 mph - 0.00 in   Partly Cloudy
1:05 PM 33.8 °F 25.3 °F 33.8 °F 100% 29.99 in 10.0 mi SSW 11.5 mph - N/A   Partly Cloudy
1:14 PM 33.8 °F 26.4 °F 33.8 °F 100% 29.99 in 10.0 mi SSW 9.2 mph - N/A   Partly Cloudy
1:29 PM 33.8 °F 25.3 °F 33.8 °F 100% 29.98 in 10.0 mi South 11.5 mph - N/A   Clear
1:36 PM 33.8 °F 24.8 °F 33.8 °F 100% 29.98 in 10.0 mi SSW 12.7 mph - N/A   Clear
1:58 PM 34.3 °F 25.5 °F 34.3 °F 100% 30.04 in 10.0 mi South 12.7 mph - 0.00 in   Scattered Clouds
2:05 PM 33.8 °F 25.8 °F 33.8 °F 100% 29.97 in 10.0 mi South 10.4 mph - N/A   Scattered Clouds
2:22 PM 33.8 °F 24.8 °F 33.8 °F 100% 29.96 in 10.0 mi SSW 12.7 mph - N/A   Scattered Clouds
2:25 PM 33.8 °F 24.8 °F 33.8 °F 100% 29.96 in 10.0 mi South 12.7 mph - N/A   Scattered Clouds
2:35 PM 33.8 °F 25.3 °F 33.8 °F 100% 29.96 in 10.0 mi SSW 11.5 mph - N/A   Mostly Cloudy
2:49 PM 33.8 °F 25.8 °F 33.8 °F 100% 29.95 in 10.0 mi SSW 10.4 mph - N/A   Mostly Cloudy
2:54 PM 33.8 °F 24.8 °F 33.8 °F 100% 29.95 in 10.0 mi SSW 12.7 mph - N/A   Mostly Cloudy
2:58 PM 34.0 °F 24.2 °F 34.0 °F 100% 30.02 in 10.0 mi South 15.0 mph - 0.00 in   Mostly Cloudy
3:06 PM 33.8 °F 23.9 °F 33.8 °F 100% 29.95 in 10.0 mi South 15.0 mph 19.6 mph N/A   Scattered Clouds
3:25 PM 33.8 °F 23.9 °F 33.8 °F 100% 29.95 in 10.0 mi South 15.0 mph - N/A   Mostly Cloudy
3:26 PM 33.8 °F 23.9 °F 33.8 °F 100% 29.95 in 10.0 mi South 15.0 mph - N/A   Mostly Cloudy
3:36 PM 33.8 °F 23.9 °F 33.8 °F 100% 29.95 in 10.0 mi South 15.0 mph - N/A Snow Light Snow
3:51 PM 32.0 °F 22.1 °F 32.0 °F 100% 29.95 in 8.0 mi SSW 13.8 mph - N/A Rain Light Rain
3:58 PM 33.4 °F 23.9 °F 33.4 °F 100% 30.02 in 10.0 mi South 13.8 mph - 0.00 in Rain Light Rain
4:03 PM 32.0 °F 23.0 °F 32.0 °F 100% 29.94 in 9.0 mi SSW 11.5 mph - N/A Snow Light Snow
4:18 PM 32.0 °F 23.0 °F 32.0 °F 100% 29.94 in 7.0 mi South 11.5 mph 21.9 mph N/A Snow Light Snow
4:48 PM 32.0 °F 22.1 °F 32.0 °F 100% 29.93 in 10.0 mi SSW 13.8 mph 19.6 mph N/A Rain Light Rain
4:58 PM 33.6 °F 23.3 °F 33.6 °F 100% 30.00 in 10.0 mi SSW 16.1 mph 20.7 mph 0.00 in Rain Light Rain
5:02 PM 33.8 °F 23.5 °F 33.8 °F 100% 29.93 in 10.0 mi South 16.1 mph 23.0 mph N/A   Overcast
5:07 PM 32.0 °F 22.1 °F 32.0 °F 100% 29.93 in 10.0 mi South 13.8 mph 25.3 mph N/A   Overcast
5:09 PM 32.0 °F 22.5 °F 32.0 °F 100% 29.93 in 10.0 mi SSW 12.7 mph 25.3 mph N/A Rain Light Rain
5:15 PM 33.8 °F 25.3 °F 33.8 °F 100% 29.93 in 10.0 mi SSW 11.5 mph 25.3 mph N/A   Overcast
5:36 PM 33.8 °F 23.5 °F 33.8 °F 100% 29.92 in 10.0 mi SSW 16.1 mph - N/A Rain Light Rain
5:46 PM 33.8 °F 23.5 °F 33.8 °F 100% 29.92 in 10.0 mi SSW 16.1 mph - N/A   Mostly Cloudy
5:58 PM 33.8 °F 24.3 °F 33.8 °F 100% 29.99 in 10.0 mi SSW 13.8 mph - 0.00 in   Overcast
6:08 PM 33.8 °F 23.9 °F 33.8 °F 100% 29.92 in 10.0 mi SSW 15.0 mph 23.0 mph N/A Rain Light Rain
6:21 PM 33.8 °F 23.5 °F 33.8 °F 100% 29.92 in 10.0 mi SSW 16.1 mph - N/A   Mostly Cloudy
6:28 PM 33.8 °F 24.3 °F 33.8 °F 100% 29.92 in 10.0 mi SW 13.8 mph - N/A Rain Light Rain
6:44 PM 33.8 °F 24.3 °F 33.8 °F 100% 29.92 in 10.0 mi SSW 13.8 mph - N/A   Mostly Cloudy
6:58 PM 34.2 °F 24.8 °F 34.2 °F 100% 29.99 in 10.0 mi SSW 13.8 mph - 0.00 in   Mostly Cloudy
7:01 PM 33.8 °F 24.3 °F 33.8 °F 100% 29.92 in 10.0 mi SSW 13.8 mph - N/A Rain Light Rain
7:06 PM 33.8 °F 23.9 °F 33.8 °F 100% 29.91 in 10.0 mi SSW 15.0 mph - N/A Rain Light Rain
7:22 PM 33.8 °F 23.5 °F 33.8 °F 100% 29.92 in 10.0 mi SSW 16.1 mph - N/A   Scattered Clouds
7:58 PM 33.8 °F 23.5 °F 33.8 °F 100% 30.00 in 10.0 mi SW 16.1 mph 23.0 mph 0.00 in   Partly Cloudy
8:08 PM 32.0 °F 22.1 °F 32.0 °F 100% 29.93 in 10.0 mi SW 13.8 mph - N/A   Partly Cloudy
8:53 PM 32.0 °F 22.1 °F 32.0 °F 100% 29.94 in 10.0 mi SW 13.8 mph - N/A   Scattered Clouds
8:58 PM 33.3 °F 23.2 °F 33.3 °F 100% 30.01 in 10.0 mi SW 15.0 mph - 0.00 in   Partly Cloudy
9:06 PM 32.0 °F 21.6 °F 32.0 °F 100% 29.94 in 10.0 mi SW 15.0 mph - N/A   Clear
9:58 PM 32.5 °F 23.2 °F 32.5 °F 100% 30.02 in 10.0 mi SW 12.7 mph - 0.00 in   Partly Cloudy
10:12 PM 32.0 °F 24.8 °F 32.0 °F 100% 29.94 in 10.0 mi WSW 8.1 mph - N/A   Partly Cloudy
10:32 PM 32.0 °F 23.6 °F 32.0 °F 100% 29.95 in 10.0 mi WSW 10.4 mph - N/A   Mostly Cloudy
10:37 PM 32.0 °F 23.6 °F 32.0 °F 100% 29.95 in 10.0 mi WSW 10.4 mph - N/A   Scattered Clouds
10:42 PM 32.0 °F 23.6 °F 32.0 °F 100% 29.95 in 10.0 mi WSW 10.4 mph - N/A   Mostly Cloudy
10:58 PM 31.3 °F 22.1 °F 31.3 °F 100% 30.02 in 10.0 mi SW 11.5 mph - N/A   Mostly Cloudy
11:03 PM 32.0 °F 23.0 °F 32.0 °F 100% 29.95 in 10.0 mi WSW 11.5 mph - N/A   Scattered Clouds
11:23 PM 32.0 °F 23.6 °F 32.0 °F 100% 29.95 in 10.0 mi WSW 10.4 mph - N/A   Mostly Cloudy
11:58 PM 30.2 °F 22.6 °F 30.2 °F 100% 30.04 in 10.0 mi WSW 8.1 mph - N/A   Scattered Clouds